Location: Newark
(45.0667°N, 7.8333°E)
Time: 12:57:06
(UTC+00:00)

NUDT-PHONESAT - Visible Passes

Search period start: 21 October 2019 00:00
Search period end: 31 October 2019 00:00
Orbit: 486 x 506 km, 97.4° (Epoch: 20 October)

Date Brightness Start Highest point End Pass type
(mag) Time Alt. Az. Time Alt. Az. Time Alt. Az.
21 Oct ? 17:35:28 10° SSW 17:38:53 39° W 17:42:19 10° NNW visible
22 Oct ? 05:02:59 10° ENE 05:05:04 15° E 05:07:08 10° SE visible
22 Oct ? 17:14:27 10° S 17:18:04 73° WSW 17:21:42 10° NNW visible
24 Oct ? 18:07:56 10° SW 18:10:22 17° W 18:12:49 10° NW visible
25 Oct ? 17:46:16 10° SSW 17:49:27 29° W 17:52:39 10° NW visible
26 Oct ? 05:13:01 10° NE 05:15:40 19° E 05:18:19 10° SE visible
26 Oct ? 17:25:03 10° S 17:28:35 52° W 17:32:08 10° NNW visible
27 Oct ? 04:53:36 10° ENE 04:54:41 11° E 04:55:46 10° ESE visible
27 Oct ? 17:04:10 10° SSE 17:07:47 83° ENE 17:11:25 10° N visible
28 Oct ? 18:19:13 10° WSW 18:20:57 13° W 18:22:39 10° WNW visible
29 Oct ? 17:57:06 10° SSW 17:59:58 22° W 18:02:51 10° NW visible
30 Oct ? 05:23:08 10° NE 05:26:12 25° E 05:29:15 10° SSE visible
30 Oct ? 17:35:40 10° SSW 17:39:04 38° W 17:42:28 10° NNW visible
